RH
73 70 69 66 62 55 53 51 48 50 52 55 54 55 51 41 36 28 23 17 11 9
77 76 72 71 63 58 61 56 58 58 58 58 62 59 49 39 32 26 19 14 10 10
84 77 73 72 76 64 61 64 62 63 64 68 62 51 43 36 28 21 17 12 11 11
84 76 74 74 69 70 71 70 70 71 73 65 52 47 38 30 23 18 13 12 11 12
83 77 71 70 70 72 73 74 75 77 71 57 49 40 35 26 20 14 13 12 13 14
82 77 72 74 77 79 81 85 83 78 57 53 45 38 30 23 16 15 13 15 16 16
82 80 73 77 83 84 90 88 82 70 62 55 42 35 24 19 16 16 16 18 18 17
85 79 77 82 91 95 96 84 78 72 64 56 40 28 22 18 17 17 18 19 20 20
88 81 79 90 97 97 94 83 81 77 64 52 34 27 21 18 18 19 21 20 22 24
87 84 86 97 97 98 94 89 90 79 62 47 36 27 21 20 21 21 21 22 23 24
92 85 96 98 97 96 92 92 89 76 60 47 35 27 22 22 23 22 23 24 25 24
91 92 98 95 98 99 97 88 82 76 58 46 36 26 25 24 22 23 27 29 25 19
95 96 98 98 97 99 94 84 82 79 58 44 34 29 26 24 24 27 29 30 25 19
98 98 98 97 98 98 92 83 88 74 53 43 34 31 28 27 28 32 34 31 23 18